This is the latest recevied weather packets stored in our database for station/object N8HON. If no packets are shown the sender has not sent any weather packets the latest 10 day(s).
| Time | Temp. | Humidity | Pressure | Rain* | Wind** | Luminosity | Snow |
|---|---|---|---|---|---|---|---|
| 1777464384 | 12.22° C | 99% | 1010.9 hPa | 0 mm | - | 29 W/m² | - |
| 1777464081 | 12.22° C | 99% | 1011.2 hPa | 0 mm | - | 29 W/m² | - |
| 1777463780 | 11.67° C | 99% | 1011.3 hPa | 0 mm | - | 26 W/m² | - |
| 1777463476 | 11.67° C | 99% | 1011.3 hPa | 0 mm | - | 27 W/m² | - |
| 1777463171 | 11.67° C | 99% | 1011 hPa | 0 mm | - | 24 W/m² | - |
| 1777462868 | 11.67° C | 99% | 1011 hPa | 0 mm | - | 26 W/m² | - |
| 1777462564 | 11.67° C | 99% | 1011.1 hPa | 0 mm | - | 23 W/m² | - |
| 1777462259 | 12.22° C | 99% | 1011.1 hPa | 0 mm | - | 17 W/m² | - |
| 1777461955 | 12.22° C | 99% | 1011.3 hPa | 0 mm | - | 15 W/m² | - |
| 1777461653 | 11.67° C | 99% | 1011.5 hPa | 0 mm | - | 10 W/m² | - |
| 1777461347 | 12.22° C | 99% | 1011.2 hPa | 0 mm | - | 14 W/m² | - |
| 1777461044 | 12.22° C | 99% | 1011 hPa | 0 mm | - | 17 W/m² | - |
| 1777460739 | 12.22° C | 99% | 1010.8 hPa | 0 mm | - | 14 W/m² | - |
| 1777460436 | 12.22° C | 99% | 1011 hPa | 0 mm | - | 12 W/m² | - |
| 1777460131 | 11.67° C | 99% | 1011 hPa | 0 mm | - | 10 W/m² | - |
| 1777459829 | 11.67° C | 99% | 1011.1 hPa | 0 mm | - | 6 W/m² | - |
| 1777459526 | 11.67° C | 99% | 1011.4 hPa | 0 mm | - | 4 W/m² | - |
| 1777459223 | 11.67° C | 99% | 1011.3 hPa | 0 mm | - | 3 W/m² | - |
| 1777458921 | 12.22° C | 99% | 1011.6 hPa | 0 mm | - | 1 W/m² | - |
| 1777458617 | 12.22° C | 99% | 1011.8 hPa | 0 mm | - | 0 W/m² | - |
| 1777458314 | 12.22° C | 99% | 1011.7 hPa | 0 mm | - | 0 W/m² | - |
| 1777458009 | 11.67° C | 99% | 1012.1 hPa | 0 mm | - | 0 W/m² | - |
| 1777457706 | 11.67° C | 99% | 1011.7 hPa | 0 mm | - | 0 W/m² | - |
| 1777457406 | 11.67° C | 99% | 1011.7 hPa | 0 mm | - | 0 W/m² | - |
| 1777457101 | 12.22° C | 99% | 1011.6 hPa | 0 mm | - | 0 W/m² | - |
* Rain latest hour (hover to see other rain measurements)
** Current wind speed in m/s (hover to see current wind gust speed)